341P/Gibbs (2016)

Japanese version
Home page
Updated on November 20, 2016

---------------------------------------------------------------------

* Profile

Designation 341P/2016 N3
Recovery Date July 15, 2016
Magnitude 17.8 mag
Recoverer D. C. Fuls (Catalina Sky Survey)

* Pictures

* Orbital Elements

Epoch 2016 May 12.0 TT = JDT 2457520.5
T 2016 May 26.84076 TT                                  MPCW
q   2.5209196            (2000.0)            P               Q
n   0.11051774     Peri.  312.20060     +0.95166127     +0.30535571
a   4.3004581      Node    30.06420     -0.25869569     +0.85503017
e   0.4138021      Incl.    3.79377     -0.16558191     +0.41914353
P   8.92
From 163 observations 2007 Sept. 10-2016 Nov. 4, mean residual 0".7.

* Magnitudes Graph

        m1 = 12.5 + 5 log d + 10.0 log r

---------------------------------------------------------------------

The orbital elements are published on M.P.E.C. 2016-V116.
The magnitudes graphs are made with Comet for Windows.

---------------------------------------------------------------------

Copyright(C) Seiichi Yoshida (comet@aerith.net). All rights reserved.